Location: Izdebno
(52.6670°N, 16.2170°E)
Time: 07:42:19
(UTC+02:00)

Vanguard 2 Rocket - Pass Details

Date: 25 February 2024
Orbit: 555 x 3307 km, 32.9° (Epoch: 24 April)

Event Time Altitude Azimuth Distance (km) Brightness Sun altitude
Rises 12:28:26 0° 180° (S) 4,150 11.5 28.0°
Reaches altitude 10° 12:34:59 10° 142° (SE) 3,936 10.9 27.9°
Maximum altitude 12:36:30 10° 134° (SE) 4,072 10.8 27.9°
Drops below altitude 10° 12:38:07 10° 125° (SE) 4,279 10.8 27.8°
Sets 12:47:43 0° 93° (E) 6,209 11.1 27.6°
